ASA1413 KSEA-KLAX

Flight info

Callsign ASA1413
Flight time 2h 9m
Altitude 37000
Route SUMMA2 SUMMA JINMO Q7 JAGWA BURGL IRNMN2
Aircraft B739/M-SDE2E3FGHIRWXY/LB1

Departure

Time 2026-05-03 23:54
Airport Seattle–Tacoma International Airport (KSEA)

Arrival

Time 2026-05-04 02:04
Airport Los Angeles International Airport (KLAX)
Time Latitude Longitude Altitude Speed Heading
2026-05-03 23:25 47.44815 -122.30313 408 ft 0 kts 41°
2026-05-03 23:38 47.44797 -122.30333 406 ft 4 kts 25°
2026-05-03 23:39 47.44773 -122.30341 403 ft 4 kts 341°
2026-05-03 23:39 47.44760 -122.30330 407 ft 1 kts 310°
2026-05-03 23:47 47.44762 -122.30334 407 ft 1 kts 307°
2026-05-03 23:47 47.44777 -122.30363 407 ft 9 kts 308°
2026-05-03 23:47 47.44803 -122.30461 407 ft 11 kts 275°
2026-05-03 23:47 47.44805 -122.30570 405 ft 10 kts 260°
2026-05-03 23:48 47.44749 -122.30629 400 ft 11 kts 185°
2026-05-03 23:48 47.44671 -122.30629 400 ft 12 kts 180°
2026-05-03 23:48 47.44596 -122.30628 399 ft 11 kts 180°
2026-05-03 23:48 47.44516 -122.30628 393 ft 14 kts 180°
2026-05-03 23:49 47.44360 -122.30622 393 ft 24 kts 164°
2026-05-03 23:49 47.44188 -122.30636 387 ft 29 kts 180°
2026-05-03 23:49 47.44028 -122.30637 383 ft 14 kts 181°
2026-05-03 23:49 47.43930 -122.30636 381 ft 15 kts 180°
2026-05-03 23:50 47.43836 -122.30639 378 ft 0 kts 180°
2026-05-03 23:50 47.43834 -122.30639 378 ft 3 kts 181°
2026-05-03 23:50 47.43779 -122.30640 376 ft 8 kts 181°
2026-05-03 23:50 47.43707 -122.30638 374 ft 12 kts 176°
2026-05-03 23:51 47.43617 -122.30611 371 ft 16 kts 154°
2026-05-03 23:51 47.43508 -122.30560 368 ft 17 kts 179°
2026-05-03 23:51 47.43386 -122.30561 366 ft 18 kts 180°
2026-05-03 23:51 47.43261 -122.30570 362 ft 18 kts 194°
2026-05-03 23:52 47.43174 -122.30671 357 ft 13 kts 255°
2026-05-03 23:52 47.43199 -122.30793 358 ft 12 kts 320°
2026-05-03 23:52 47.43253 -122.30806 358 ft 0 kts 358°
2026-05-03 23:53 47.43307 -122.30808 360 ft 20 kts
2026-05-03 23:53 47.43694 -122.30805 370 ft 90 kts
2026-05-03 23:54 47.44521 -122.30797 396 ft 145 kts
2026-05-03 23:54 47.45241 -122.30781 540 ft 163 kts
2026-05-03 23:54 47.46443 -122.30695 955 ft 183 kts
2026-05-03 23:54 47.47731 -122.30720 1634 ft 187 kts 358°
2026-05-03 23:55 47.49081 -122.30767 2045 ft 207 kts 358°
2026-05-03 23:55 47.50583 -122.30921 2388 ft 223 kts 357°
2026-05-03 23:55 47.52149 -122.30974 2984 ft 230 kts
2026-05-03 23:55 47.53831 -122.31092 3333 ft 251 kts 357°
2026-05-03 23:56 47.55616 -122.31007 4014 ft 261 kts
2026-05-03 23:56 47.57446 -122.30901 4923 ft 261 kts
2026-05-03 23:56 47.59164 -122.30046 5806 ft 264 kts 32°
2026-05-03 23:56 47.60461 -122.28102 6657 ft 271 kts 58°
2026-05-03 23:57 47.61022 -122.25408 7354 ft 283 kts 87°
2026-05-03 23:57 47.60796 -122.22490 8136 ft 288 kts 98°
2026-05-03 23:57 47.60372 -122.19573 8976 ft 290 kts 103°
2026-05-03 23:57 47.59847 -122.16674 9809 ft 293 kts 105°
2026-05-03 23:58 47.59256 -122.13751 10409 ft 303 kts 111°
2026-05-03 23:58 47.58009 -122.11117 10560 ft 328 kts 141°
2026-05-03 23:58 47.55911 -122.09600 10737 ft 351 kts 169°
2026-05-03 23:58 47.53406 -122.09248 10925 ft 373 kts 176°
2026-05-03 23:59 47.50749 -122.09033 11257 ft 389 kts 177°
2026-05-03 23:59 47.48017 -122.08810 11845 ft 397 kts 176°
2026-05-03 23:59 47.45248 -122.08555 12538 ft 399 kts 176°
2026-05-03 23:59 47.42473 -122.08262 13163 ft 399 kts 174°
2026-05-04 00:00 47.39732 -122.07902 13323 ft 394 kts 174°
2026-05-04 00:00 47.37007 -122.07536 13416 ft 392 kts 174°
2026-05-04 00:00 47.34299 -122.07187 13479 ft 390 kts 174°
2026-05-04 00:00 47.31598 -122.06853 13556 ft 388 kts 174°
2026-05-04 00:01 47.28960 -122.06570 13545 ft 372 kts 175°
2026-05-04 00:01 47.26433 -122.06318 13581 ft 357 kts 175°
2026-05-04 00:01 47.23980 -122.06058 13613 ft 357 kts 174°
2026-05-04 00:01 47.21407 -122.05767 13839 ft 385 kts 174°
2026-05-04 00:02 47.18655 -122.05448 14122 ft 406 kts 175°
2026-05-04 00:02 47.15810 -122.05115 14648 ft 413 kts 174°
2026-05-04 00:02 47.12935 -122.04773 15223 ft 415 kts 175°
2026-05-04 00:02 47.10056 -122.04434 15823 ft 417 kts 175°
2026-05-04 00:03 47.07147 -122.04092 16239 ft 422 kts 174°
2026-05-04 00:03 47.04238 -122.03747 16668 ft 427 kts 174°
2026-05-04 00:03 47.01268 -122.03399 17150 ft 431 kts 174°
2026-05-04 00:03 46.98273 -122.03053 17641 ft 434 kts 174°
2026-05-04 00:04 46.95258 -122.02701 18113 ft 432 kts 174°
2026-05-04 00:04 46.92238 -122.02345 18405 ft 436 kts 174°
2026-05-04 00:04 46.89247 -122.01994 18642 ft 428 kts 174°
2026-05-04 00:04 46.86285 -122.01650 19165 ft 425 kts 174°
2026-05-04 00:05 46.83333 -122.01304 19731 ft 427 kts 174°
2026-05-04 00:05 46.80377 -122.00958 20282 ft 428 kts 174°
2026-05-04 00:05 46.77386 -122.00609 20725 ft 432 kts 174°
2026-05-04 00:05 46.74372 -122.00259 21185 ft 436 kts 174°
2026-05-04 00:06 46.71340 -121.99906 21659 ft 438 kts 174°
2026-05-04 00:06 46.68285 -121.99552 22063 ft 442 kts 174°
2026-05-04 00:06 46.65209 -121.99208 22528 ft 445 kts 175°
2026-05-04 00:06 46.62107 -121.99345 23046 ft 448 kts 186°
2026-05-04 00:07 46.59039 -122.00231 23449 ft 453 kts 196°
2026-05-04 00:07 46.56061 -122.01800 23820 ft 456 kts 201°
2026-05-04 00:07 46.53130 -122.03510 24358 ft 454 kts 201°
2026-05-04 00:07 46.50195 -122.05217 24815 ft 455 kts 201°
2026-05-04 00:08 46.47236 -122.06896 25129 ft 459 kts 200°
2026-05-04 00:08 46.44233 -122.08567 25412 ft 464 kts 200°
2026-05-04 00:08 46.41188 -122.10213 25685 ft 469 kts 197°
2026-05-04 00:08 46.38009 -122.11280 26091 ft 469 kts 187°
2026-05-04 00:09 46.34761 -122.11660 26459 ft 469 kts 179°
2026-05-04 00:09 46.31509 -122.11349 26905 ft 467 kts 169°
2026-05-04 00:09 46.28314 -122.10592 27450 ft 464 kts 168°
2026-05-04 00:09 46.25139 -122.09774 27962 ft 463 kts 168°
2026-05-04 00:10 46.21966 -122.08956 28464 ft 463 kts 168°
2026-05-04 00:10 46.18797 -122.08152 28917 ft 463 kts 168°
2026-05-04 00:10 46.15619 -122.07368 29472 ft 462 kts 168°
2026-05-04 00:10 46.12469 -122.06601 30103 ft 457 kts 168°
2026-05-04 00:11 46.09334 -122.05845 30521 ft 457 kts 168°
2026-05-04 00:11 46.06190 -122.05093 30843 ft 459 kts 168°
2026-05-04 00:11 46.03036 -122.04341 31222 ft 459 kts 168°
2026-05-04 00:11 45.99890 -122.03596 31673 ft 457 kts 168°
2026-05-04 00:12 45.96758 -122.02855 32087 ft 455 kts 168°
2026-05-04 00:12 45.93635 -122.02116 32475 ft 454 kts 168°
2026-05-04 00:12 45.90515 -122.01382 32876 ft 453 kts 168°
2026-05-04 00:12 45.87408 -122.00647 33253 ft 453 kts 168°
2026-05-04 00:13 45.84299 -121.99910 33590 ft 453 kts 168°
2026-05-04 00:13 45.81193 -121.99175 33900 ft 453 kts 168°
2026-05-04 00:13 45.78130 -121.98451 34170 ft 453 kts 168°
2026-05-04 00:13 45.75013 -121.97719 34403 ft 453 kts 168°
2026-05-04 00:14 45.71865 -121.96979 34730 ft 451 kts 168°
2026-05-04 00:14 45.68814 -121.96262 35030 ft 450 kts 168°
2026-05-04 00:14 45.65727 -121.95535 35293 ft 450 kts 168°
2026-05-04 00:14 45.62633 -121.94811 35515 ft 450 kts 168°
2026-05-04 00:15 45.59541 -121.94086 35725 ft 451 kts 168°
2026-05-04 00:15 45.56441 -121.93360 36014 ft 450 kts 167°
2026-05-04 00:15 45.53356 -121.92639 36319 ft 449 kts 168°
2026-05-04 00:15 45.50280 -121.91921 36634 ft 447 kts 168°
2026-05-04 00:16 45.47228 -121.91210 36826 ft 443 kts 168°
2026-05-04 00:16 45.44180 -121.90503 36855 ft 444 kts 168°
2026-05-04 00:16 45.38055 -121.89077 36879 ft 448 kts 168°
2026-05-04 00:17 45.31893 -121.87648 36871 ft 449 kts 168°
2026-05-04 00:17 45.25719 -121.86219 36884 ft 450 kts 168°
2026-05-04 00:18 45.19545 -121.84792 36883 ft 449 kts 168°
2026-05-04 00:18 45.13394 -121.83374 36886 ft 447 kts 168°
2026-05-04 00:19 45.07267 -121.81967 36896 ft 445 kts 168°
2026-05-04 00:19 45.01162 -121.80567 36885 ft 443 kts 168°
2026-05-04 00:20 44.95084 -121.79176 36895 ft 441 kts 168°
2026-05-04 00:20 44.89031 -121.77793 36909 ft 440 kts 168°
2026-05-04 00:21 44.83033 -121.76423 36899 ft 439 kts 168°
2026-05-04 00:21 44.77004 -121.75050 36906 ft 439 kts 168°
2026-05-04 00:22 44.70967 -121.73684 36870 ft 440 kts 168°
2026-05-04 00:22 44.64932 -121.72314 36897 ft 440 kts 168°
2026-05-04 00:23 44.58876 -121.70944 36894 ft 441 kts 168°
2026-05-04 00:23 44.52808 -121.69573 36895 ft 442 kts 168°
2026-05-04 00:24 44.46734 -121.68204 36905 ft 442 kts 168°
2026-05-04 00:24 44.40652 -121.66839 36888 ft 443 kts 168°
2026-05-04 00:25 44.34580 -121.65477 36903 ft 442 kts 168°
2026-05-04 00:25 44.28511 -121.64099 36891 ft 442 kts 168°
2026-05-04 00:26 44.22455 -121.62689 36915 ft 441 kts 168°
2026-05-04 00:26 44.16404 -121.61277 36916 ft 441 kts 168°
2026-05-04 00:27 44.10356 -121.59875 36908 ft 440 kts 168°
2026-05-04 00:27 44.04314 -121.58481 36920 ft 440 kts 168°
2026-05-04 00:28 43.98268 -121.57090 36916 ft 440 kts 168°
2026-05-04 00:28 43.92227 -121.55700 36906 ft 439 kts 168°
2026-05-04 00:29 43.86210 -121.54318 36927 ft 438 kts 168°
2026-05-04 00:29 43.80200 -121.52935 36919 ft 438 kts 169°
2026-05-04 00:30 43.74193 -121.51571 36898 ft 437 kts 169°
2026-05-04 00:30 43.68188 -121.50208 36909 ft 437 kts 168°
2026-05-04 00:31 43.62188 -121.48834 36922 ft 437 kts 169°
2026-05-04 00:31 43.56183 -121.47474 36921 ft 437 kts 168°
2026-05-04 00:32 43.50183 -121.46108 36906 ft 437 kts 168°
2026-05-04 00:32 43.44180 -121.44758 36917 ft 437 kts 169°
2026-05-04 00:33 43.35199 -121.42727 36918 ft 441 kts 168°
2026-05-04 00:34 43.29096 -121.41351 36919 ft 448 kts 169°
2026-05-04 00:34 43.22900 -121.39967 36907 ft 454 kts 169°
2026-05-04 00:35 43.16629 -121.38566 36915 ft 459 kts 169°
2026-05-04 00:35 43.10294 -121.37143 36907 ft 463 kts 169°
2026-05-04 00:36 43.03919 -121.35718 36896 ft 465 kts 169°
2026-05-04 00:36 42.97528 -121.34297 36895 ft 465 kts 169°
2026-05-04 00:37 42.91148 -121.32873 36899 ft 464 kts 169°
2026-05-04 00:37 42.84779 -121.31465 36903 ft 463 kts 169°
2026-05-04 00:38 42.78418 -121.30061 36896 ft 463 kts 169°
2026-05-04 00:38 42.72068 -121.28661 36908 ft 462 kts 169°
2026-05-04 00:39 42.65755 -121.27314 36908 ft 462 kts 169°
2026-05-04 00:39 42.59410 -121.25896 36910 ft 462 kts 168°
2026-05-04 00:40 42.53075 -121.24434 36903 ft 461 kts 170°
2026-05-04 00:40 42.46748 -121.23073 36917 ft 460 kts 170°
2026-05-04 00:41 42.40444 -121.21720 36904 ft 458 kts 170°
2026-05-04 00:41 42.35220 -121.20590 36896 ft 456 kts 171°
2026-05-04 00:42 42.28957 -121.19226 36907 ft 455 kts 169°
2026-05-04 00:42 42.22681 -121.17858 36903 ft 453 kts 169°
2026-05-04 00:43 42.16493 -121.16526 36909 ft 453 kts 169°
2026-05-04 00:43 42.10268 -121.15178 36914 ft 453 kts 170°
2026-05-04 00:44 42.04050 -121.13831 36902 ft 453 kts 170°
2026-05-04 00:44 41.97839 -121.12496 36894 ft 452 kts 169°
2026-05-04 00:45 41.91632 -121.11165 36905 ft 451 kts 169°
2026-05-04 00:45 41.85436 -121.09834 36893 ft 451 kts 169°
2026-05-04 00:46 41.79254 -121.08516 36888 ft 449 kts 170°
2026-05-04 00:46 41.73106 -121.07198 36892 ft 447 kts 169°
2026-05-04 00:47 41.66963 -121.05883 36906 ft 446 kts 169°
2026-05-04 00:47 41.60809 -121.04556 36895 ft 449 kts 169°
2026-05-04 00:48 41.54637 -121.03138 36888 ft 451 kts 168°
2026-05-04 00:48 41.48410 -121.01852 36887 ft 454 kts 170°
2026-05-04 00:49 41.42147 -121.00595 36861 ft 456 kts 169°
2026-05-04 00:49 41.35875 -120.99291 36858 ft 456 kts 169°
2026-05-04 00:50 41.29607 -120.97972 36837 ft 455 kts 168°
2026-05-04 00:50 41.23395 -120.96665 36848 ft 454 kts 168°
2026-05-04 00:51 41.17164 -120.95349 36852 ft 452 kts 169°
2026-05-04 00:51 41.10955 -120.94049 36841 ft 451 kts 169°
2026-05-04 00:52 41.04771 -120.92756 36839 ft 449 kts 168°
2026-05-04 00:52 40.98593 -120.91555 36841 ft 449 kts 172°
2026-05-04 00:53 40.92360 -120.91002 36846 ft 449 kts 175°
2026-05-04 00:53 40.86126 -120.90600 36847 ft 448 kts 175°
2026-05-04 00:54 40.79913 -120.90164 36854 ft 447 kts 175°
2026-05-04 00:54 40.73694 -120.89681 36841 ft 448 kts 174°
2026-05-04 00:55 40.67462 -120.89186 36845 ft 449 kts 174°
2026-05-04 00:55 40.61220 -120.88694 36869 ft 450 kts 174°
2026-05-04 00:56 40.54958 -120.88200 36875 ft 451 kts 174°
2026-05-04 00:56 40.48679 -120.87690 36897 ft 453 kts 174°
2026-05-04 00:57 40.42386 -120.87190 36904 ft 453 kts 174°
2026-05-04 00:57 40.36086 -120.86687 36914 ft 454 kts 174°
2026-05-04 00:58 40.29782 -120.86183 36908 ft 454 kts 174°
2026-05-04 00:58 40.23530 -120.85672 36930 ft 452 kts 174°
2026-05-04 00:59 40.17258 -120.85194 36931 ft 451 kts 175°
2026-05-04 00:59 40.11016 -120.84726 36955 ft 447 kts 174°
2026-05-04 01:00 40.04799 -120.84246 36946 ft 447 kts 176°
2026-05-04 01:00 39.98599 -120.83759 36959 ft 446 kts 175°
2026-05-04 01:01 39.92399 -120.83276 36973 ft 446 kts 175°
2026-05-04 01:01 39.86197 -120.82793 36984 ft 447 kts 176°
2026-05-04 01:02 39.79973 -120.82311 36979 ft 448 kts 176°
2026-05-04 01:02 39.73734 -120.81866 36979 ft 450 kts 181°
2026-05-04 01:02 39.70642 -120.82474 36973 ft 452 kts 198°
2026-05-04 01:03 39.67831 -120.84164 36975 ft 453 kts 211°
2026-05-04 01:03 39.62435 -120.88395 36987 ft 453 kts 206°
2026-05-04 01:04 39.56750 -120.92010 36964 ft 456 kts 200°
2026-05-04 01:04 39.53687 -120.93016 36967 ft 454 kts 184°
2026-05-04 01:04 39.50543 -120.92938 36944 ft 453 kts 171°
2026-05-04 01:05 39.44305 -120.91739 36946 ft 455 kts 173°
2026-05-04 01:05 39.37998 -120.90854 36922 ft 457 kts 174°
2026-05-04 01:06 39.31679 -120.90018 36981 ft 457 kts 174°
2026-05-04 01:06 39.25356 -120.89179 36998 ft 457 kts 174°
2026-05-04 01:07 39.19038 -120.88336 36978 ft 456 kts 174°
2026-05-04 01:07 39.12738 -120.87483 36962 ft 454 kts 174°
2026-05-04 01:08 39.06465 -120.86636 36962 ft 452 kts 174°
2026-05-04 01:08 39.00221 -120.85794 36925 ft 450 kts 174°
2026-05-04 01:09 38.94001 -120.84958 36948 ft 449 kts 174°
2026-05-04 01:09 38.87800 -120.84126 36969 ft 447 kts 174°
2026-05-04 01:10 38.81614 -120.83297 36986 ft 446 kts 174°
2026-05-04 01:10 38.75440 -120.82470 36994 ft 446 kts 174°
2026-05-04 01:11 38.69271 -120.81645 36993 ft 446 kts 175°
2026-05-04 01:11 38.63100 -120.80825 36955 ft 446 kts 175°
2026-05-04 01:12 38.56914 -120.80000 36953 ft 447 kts 175°
2026-05-04 01:12 38.50716 -120.79177 36973 ft 448 kts 175°
2026-05-04 01:13 38.44506 -120.78354 36974 ft 449 kts 175°
2026-05-04 01:13 38.38277 -120.77529 36972 ft 450 kts 175°
2026-05-04 01:14 38.32039 -120.76706 36976 ft 451 kts 175°
2026-05-04 01:14 38.25803 -120.75883 36966 ft 451 kts 175°
2026-05-04 01:15 38.19576 -120.75062 36951 ft 450 kts 175°
2026-05-04 01:15 38.13350 -120.74243 36948 ft 449 kts 175°
2026-05-04 01:16 38.07137 -120.73427 36959 ft 449 kts 176°
2026-05-04 01:16 38.00932 -120.72615 36950 ft 448 kts 176°
2026-05-04 01:17 37.94736 -120.71803 36942 ft 447 kts 176°
2026-05-04 01:17 37.88560 -120.71024 36937 ft 442 kts 176°
2026-05-04 01:18 37.82447 -120.70194 36934 ft 442 kts 177°
2026-05-04 01:18 37.76325 -120.69397 36935 ft 443 kts 177°
2026-05-04 01:19 37.70188 -120.68602 36928 ft 443 kts 178°
2026-05-04 01:19 37.64046 -120.67808 36923 ft 444 kts 178°
2026-05-04 01:20 37.57929 -120.67015 36921 ft 445 kts 178°
2026-05-04 01:20 37.51723 -120.66214 36910 ft 445 kts 179°
2026-05-04 01:21 37.45566 -120.65418 36915 ft 445 kts 179°
2026-05-04 01:21 37.39414 -120.64625 36913 ft 444 kts 179°
2026-05-04 01:22 37.33269 -120.63816 36894 ft 444 kts 178°
2026-05-04 01:22 37.27203 -120.62084 36909 ft 449 kts 171°
2026-05-04 01:23 37.21177 -120.60038 36921 ft 448 kts 171°
2026-05-04 01:23 37.15157 -120.58023 36918 ft 447 kts 172°
2026-05-04 01:24 37.09154 -120.56058 36917 ft 446 kts 173°
2026-05-04 01:24 37.03194 -120.54129 36928 ft 445 kts 173°
2026-05-04 01:25 36.97200 -120.52198 36932 ft 444 kts 173°
2026-05-04 01:25 36.91217 -120.50269 36921 ft 444 kts 174°
2026-05-04 01:26 36.85234 -120.48347 36925 ft 444 kts 174°
2026-05-04 01:26 36.79254 -120.46426 36924 ft 444 kts 174°
2026-05-04 01:27 36.73275 -120.44506 36925 ft 443 kts 176°
2026-05-04 01:27 36.68314 -120.42915 36922 ft 443 kts 176°
2026-05-04 01:28 36.62339 -120.41008 36936 ft 443 kts 176°
2026-05-04 01:28 36.60608 -120.40456 36932 ft 443 kts 176°
2026-05-04 01:29 36.58143 -120.39670 36919 ft 443 kts 175°
2026-05-04 01:29 36.52157 -120.37766 36926 ft 444 kts 175°
2026-05-04 01:30 36.46170 -120.35856 36931 ft 444 kts 175°
2026-05-04 01:30 36.40177 -120.33950 36927 ft 445 kts 175°
2026-05-04 01:31 36.34184 -120.32045 36931 ft 444 kts 176°
2026-05-04 01:31 36.28187 -120.30148 36942 ft 445 kts 176°
2026-05-04 01:32 36.22186 -120.28250 36922 ft 445 kts 176°
2026-05-04 01:32 36.16186 -120.26354 36906 ft 444 kts 177°
2026-05-04 01:33 36.10206 -120.24467 36930 ft 443 kts 177°
2026-05-04 01:33 36.04230 -120.22583 36951 ft 443 kts 177°
2026-05-04 01:34 35.98255 -120.20706 36945 ft 443 kts 177°
2026-05-04 01:34 35.92291 -120.18836 36953 ft 442 kts 178°
2026-05-04 01:35 35.86320 -120.16962 36947 ft 443 kts 177°
2026-05-04 01:35 35.80354 -120.15106 36946 ft 440 kts 178°
2026-05-04 01:36 35.74448 -120.13068 36909 ft 452 kts 174°
2026-05-04 01:36 35.71454 -120.12185 36998 ft 437 kts 181°
2026-05-04 01:36 35.68465 -120.11471 36963 ft 440 kts 179°
2026-05-04 01:36 35.65521 -120.10233 36950 ft 463 kts 161°
2026-05-04 01:37 35.62780 -120.08060 37010 ft 469 kts 158°
2026-05-04 01:37 35.57269 -120.03739 36945 ft 471 kts 160°
2026-05-04 01:38 35.51653 -119.99523 36979 ft 475 kts 160°
2026-05-04 01:38 35.45991 -119.95267 36984 ft 478 kts 160°
2026-05-04 01:39 35.40318 -119.90999 36942 ft 478 kts 160°
2026-05-04 01:39 35.34660 -119.86749 36956 ft 477 kts 160°
2026-05-04 01:40 35.29005 -119.82513 36953 ft 476 kts 159°
2026-05-04 01:40 35.23557 -119.77750 36961 ft 484 kts 153°
2026-05-04 01:41 35.18287 -119.72628 36955 ft 479 kts 153°
2026-05-04 01:41 35.15712 -119.70138 36909 ft 463 kts 154°
2026-05-04 01:41 35.13204 -119.67745 36531 ft 456 kts 155°
2026-05-04 01:41 35.10664 -119.65374 35590 ft 463 kts 156°
2026-05-04 01:42 35.08103 -119.63012 34618 ft 472 kts 156°
2026-05-04 01:42 35.05456 -119.60575 33613 ft 480 kts 156°
2026-05-04 01:42 35.02774 -119.58097 32500 ft 488 kts 156°
2026-05-04 01:42 35.00022 -119.55543 31549 ft 492 kts 155°
2026-05-04 01:43 34.97349 -119.53044 31008 ft 487 kts 155°
2026-05-04 01:43 34.94682 -119.50571 30656 ft 477 kts 154°
2026-05-04 01:43 34.92069 -119.48134 30292 ft 469 kts 154°
2026-05-04 01:43 34.89487 -119.45756 29799 ft 461 kts 154°
2026-05-04 01:44 34.86915 -119.43444 29121 ft 458 kts 155°
2026-05-04 01:44 34.84322 -119.41204 28309 ft 457 kts 156°
2026-05-04 01:44 34.81787 -119.38834 27723 ft 457 kts 153°
2026-05-04 01:44 34.79250 -119.36594 27212 ft 447 kts 156°
2026-05-04 01:45 34.76718 -119.34439 26705 ft 442 kts 156°
2026-05-04 01:45 34.74220 -119.32264 26252 ft 438 kts 154°
2026-05-04 01:45 34.69401 -119.27927 25434 ft 424 kts 155°
2026-05-04 01:46 34.67013 -119.25853 24874 ft 420 kts 156°
2026-05-04 01:46 34.64630 -119.23829 24380 ft 418 kts 155°
2026-05-04 01:46 34.62293 -119.21729 23884 ft 416 kts 155°
2026-05-04 01:46 34.59953 -119.19697 23461 ft 412 kts 156°
2026-05-04 01:47 34.57604 -119.17779 22961 ft 404 kts 157°
2026-05-04 01:47 34.55303 -119.15820 22463 ft 404 kts 153°
2026-05-04 01:47 34.53072 -119.13794 22169 ft 397 kts 151°
2026-05-04 01:47 34.50870 -119.11812 21683 ft 393 kts 152°
2026-05-04 01:48 34.48666 -119.09849 21159 ft 392 kts 152°
2026-05-04 01:48 34.46471 -119.07899 20667 ft 391 kts 152°
2026-05-04 01:48 34.44287 -119.05965 20213 ft 386 kts 152°
2026-05-04 01:48 34.42111 -119.04077 19753 ft 383 kts 152°
2026-05-04 01:49 34.39951 -119.02213 19313 ft 380 kts 152°
2026-05-04 01:49 34.37813 -119.00360 18847 ft 377 kts 152°
2026-05-04 01:49 34.35685 -118.98522 18341 ft 374 kts 152°
2026-05-04 01:49 34.33576 -118.96689 17907 ft 372 kts 150°
2026-05-04 01:50 34.31512 -118.94822 17436 ft 370 kts 150°
2026-05-04 01:50 34.29478 -118.92960 16989 ft 366 kts 149°
2026-05-04 01:50 34.27449 -118.91110 16548 ft 363 kts 149°
2026-05-04 01:50 34.25463 -118.89307 16101 ft 360 kts 149°
2026-05-04 01:51 34.23447 -118.87467 15161 ft 370 kts 149°
2026-05-04 01:51 34.21390 -118.85578 14195 ft 379 kts 147°
2026-05-04 01:51 34.19266 -118.83625 13196 ft 387 kts 147°
2026-05-04 01:51 34.17110 -118.81645 12230 ft 391 kts 146°
2026-05-04 01:52 34.15009 -118.79574 11728 ft 385 kts 142°
2026-05-04 01:52 34.13044 -118.77449 11274 ft 374 kts 141°
2026-05-04 01:52 34.11156 -118.75367 10923 ft 363 kts 140°
2026-05-04 01:52 34.09327 -118.73310 10546 ft 355 kts 140°
2026-05-04 01:53 34.07492 -118.71389 10182 ft 345 kts 141°
2026-05-04 01:53 34.05756 -118.69440 9926 ft 335 kts 139°
2026-05-04 01:53 34.04102 -118.67538 9731 ft 326 kts 133°
2026-05-04 01:53 34.02975 -118.65211 9457 ft 323 kts 110°
2026-05-04 01:54 34.02511 -118.62597 9152 ft 318 kts 97°
2026-05-04 01:54 34.02296 -118.59945 8731 ft 317 kts 96°
2026-05-04 01:54 34.02081 -118.57303 8286 ft 317 kts 97°
2026-05-04 01:54 34.01854 -118.54669 7907 ft 314 kts 97°
2026-05-04 01:55 34.01621 -118.52085 7642 ft 307 kts 97°
2026-05-04 01:55 34.01382 -118.49556 7381 ft 301 kts 97°
2026-05-04 01:55 34.01148 -118.47076 7124 ft 295 kts 97°
2026-05-04 01:55 34.01109 -118.44630 6868 ft 291 kts 82°
2026-05-04 01:56 34.01544 -118.42280 6644 ft 286 kts 77°
2026-05-04 01:56 34.01918 -118.40329 6443 ft 285 kts 78°
2026-05-04 01:56 34.02334 -118.38001 6205 ft 284 kts 79°
2026-05-04 01:56 34.02737 -118.35680 6045 ft 283 kts 80°
2026-05-04 01:57 34.03038 -118.33321 5686 ft 290 kts 84°
2026-05-04 01:57 34.03270 -118.30900 5245 ft 292 kts 84°
2026-05-04 01:57 34.03494 -118.28459 4796 ft 294 kts 84°
2026-05-04 01:57 34.03726 -118.26007 4350 ft 295 kts 85°
2026-05-04 01:58 34.03953 -118.23547 3902 ft 296 kts 85°
2026-05-04 01:58 34.04181 -118.21077 3451 ft 297 kts 84°
2026-05-04 01:58 34.04374 -118.18597 3000 ft 297 kts 91°
2026-05-04 01:58 34.03939 -118.16221 2677 ft 284 kts 118°
2026-05-04 01:59 34.02744 -118.14500 2606 ft 253 kts 147°
2026-05-04 01:59 34.01215 -118.13820 2567 ft 226 kts 179°
2026-05-04 01:59 33.99766 -118.14221 2573 ft 216 kts 212°
2026-05-04 01:59 33.98743 -118.15526 2597 ft 214 kts 238°
2026-05-04 02:00 33.98013 -118.17066 2597 ft 215 kts 241°
2026-05-04 02:00 33.97299 -118.18637 2599 ft 214 kts 242°
2026-05-04 02:00 33.96681 -118.20265 2596 ft 214 kts 248°
2026-05-04 02:00 33.96135 -118.21928 2599 ft 212 kts 248°
2026-05-04 02:01 33.95657 -118.23547 2515 ft 200 kts 256°
2026-05-04 02:01 33.95371 -118.25150 2271 ft 189 kts 258°
2026-05-04 02:01 33.95104 -118.26639 2048 ft 175 kts 257°
2026-05-04 02:01 33.94841 -118.28021 1825 ft 165 kts 257°
2026-05-04 02:02 33.94639 -118.29360 1617 ft 162 kts 263°
2026-05-04 02:02 33.94509 -118.30701 1410 ft 162 kts 264°
2026-05-04 02:02 33.94374 -118.32043 1201 ft 159 kts 264°
2026-05-04 02:02 33.94241 -118.33326 1054 ft 150 kts 264°
2026-05-04 02:03 33.94107 -118.34590 857 ft 155 kts 264°
2026-05-04 02:03 33.93978 -118.35862 638 ft 147 kts 263°
2026-05-04 02:03 33.93867 -118.37053 444 ft 143 kts 262°
2026-05-04 02:03 33.93737 -118.38236 179 ft 137 kts 262°
2026-05-04 02:04 33.93627 -118.39286 92 ft 111 kts 263°
2026-05-04 02:04 33.93570 -118.39906 95 ft 51 kts 264°
2026-05-04 02:04 33.93592 -118.40264 94 ft 28 kts 290°
2026-05-04 02:04 33.93624 -118.40450 94 ft 22 kts 265°
2026-05-04 02:05 33.93606 -118.40630 93 ft 21 kts 262°
2026-05-04 02:05 33.93596 -118.40801 94 ft 21 kts 283°
2026-05-04 02:05 33.93691 -118.40901 96 ft 19 kts 349°
2026-05-04 02:05 33.93791 -118.40913 92 ft 13 kts 355°
2026-05-04 02:06 33.93861 -118.40907 92 ft 8 kts 56°
2026-05-04 02:06 33.93870 -118.40873 92 ft 0 kts 80°
2026-05-04 02:06 33.93875 -118.40847 92 ft 7 kts 79°
2026-05-04 02:06 33.93884 -118.40786 91 ft 7 kts 79°
2026-05-04 02:07 33.93891 -118.40740 92 ft 1 kts 80°
2026-05-04 02:07 33.93891 -118.40741 92 ft 0 kts 80°
2026-05-04 02:07 33.93890 -118.40741 92 ft 0 kts 80°
2026-05-04 02:08 33.93891 -118.40736 92 ft 1 kts 81°
2026-05-04 02:08 33.93894 -118.40695 92 ft 7 kts 86°
2026-05-04 02:08 33.93897 -118.40638 92 ft 7 kts 84°
2026-05-04 02:08 33.93902 -118.40582 92 ft 7 kts 84°
2026-05-04 02:09 33.93909 -118.40496 93 ft 13 kts 84°
2026-05-04 02:09 33.93921 -118.40387 93 ft 13 kts 82°
2026-05-04 02:09 33.93964 -118.40305 92 ft 13 kts
2026-05-04 02:09 33.94002 -118.40332 92 ft 1 kts 339°
2026-05-04 02:10 33.94046 -118.40323 92 ft 8 kts 350°
2026-05-04 02:10 33.94061 -118.40348 92 ft 3 kts 283°
2026-05-04 02:10 33.94059 -118.40371 92 ft 3 kts 262°
2026-05-04 02:10 33.94059 -118.40374 92 ft 0 kts 262°